Weather History for Lee's Summit, MO

Change the Weather History Date:

Sunday, May 19, 2013

  Actual Average (KMKC) Record (KMKC)
Temperature  
Mean Temperature 72 °F -  
Max Temperature 84 °F 74 °F 96 °F (1998)
Min Temperature 62 °F 55 °F 44 °F (2002)
Cooling Degree Days 7    
Growing Degree Days 22 (Base 50)    
Moisture  
Dew Point 62 °F    
Average Humidity 78    
Maximum Humidity 94    
Minimum Humidity 58    
Precipitation  
Precipitation 0.94 in - - ()
Sea Level Pressure  
Sea Level Pressure 29.71 in    
Wind  
Wind Speed 11 mph (SSW)    
Max Wind Speed 31 mph    
Max Gust Speed 50 mph    
Visibility 8 miles    
Events Rain , Thunderstorm    
Averages and records for this station are not official NWS values.
T = Trace of Precipitation, MM = Missing Value Source: NWS Daily Summary

Daily Weather History Graph

Daily Weather History Graph

Search for Another Location

Airport:

Trip Planner

Search our weather history database for the weather conditions in past years. The results will help you decide how hot, cold, wet, or windy it might be!

Date:

Astronomy

May. 19, 2013 Rise Set
Actual Time 6:01 AM CDT 8:27 PM CDT
Civil Twilight 5:30 AM CDT 8:57 PM CDT
Nautical Twilight 4:53 AM CDT 9:35 PM CDT
Astronomical Twilight 4:11 AM CDT 10:17 PM CDT
Moon 2:35 PM CDT (5/19) 2:21 AM CDT (5/19)
Length of Visible Light 15h 26m
Length of Day
14h 25m
Waxing Gibbous, 65% of the Moon is Illuminated
May 19
Waxing Gibbous
May 24
Full
May 31
Last Quarter
Jun 8
New
Jun 16
First Quarter

Hourly Weather History & Observations

Time (CDT) Temp. Heat Index Dew Point Humidity Pressure Visibility Wind Dir Wind Speed Gust Speed Precip Events Conditions
12:53 AM 75.9 °F - 70.0 °F 82% 29.78 in 8.0 mi South 11.5 mph 19.6 mph N/A   Clear
1:53 AM 72.0 °F - 61.0 °F 68% 29.82 in 8.0 mi NW 25.3 mph 33.4 mph N/A   Mostly Cloudy
2:08 AM 69.8 °F - 57.2 °F 64% 29.85 in 10.0 mi NNW 18.4 mph 21.9 mph N/A   Overcast
2:53 AM 64.9 °F - 59.0 °F 81% 29.80 in 10.0 mi NNW 4.6 mph - 0.00 in   Scattered Clouds
3:16 AM 66.2 °F - 59.0 °F 78% 29.81 in 6.0 mi ENE 4.6 mph - 0.06 in Rain , Thunderstorm Light Rain
3:53 AM 64.9 °F - 61.0 °F 87% 29.82 in 4.0 mi SSE 3.5 mph - 0.19 in Rain , Thunderstorm Light Thunderstorms and Rain
4:24 AM 62.6 °F - 60.8 °F 94% 29.81 in 10.0 mi East 10.4 mph - 0.00 in   Partly Cloudy
5:53 AM 63.0 °F - 59.0 °F 87% 29.73 in 10.0 mi ESE 5.8 mph - N/A   Clear
6:53 AM 64.0 °F - 60.1 °F 87% 29.80 in 10.0 mi South 6.9 mph - N/A   Clear
7:32 AM 64.4 °F - 59.0 °F 83% 29.87 in 7.0 mi SSW 10.4 mph 25.3 mph 0.01 in Rain , Thunderstorm Rain
7:53 AM 66.0 °F - 61.0 °F 84% 29.82 in 9.0 mi South 5.8 mph - 0.02 in Rain , Thunderstorm Light Rain
8:01 AM 66.2 °F - 60.8 °F 83% 29.84 in 9.0 mi SSE 6.9 mph - 0.01 in Rain , Thunderstorm Light Rain
8:22 AM 64.4 °F - 60.8 °F 88% 29.78 in 6.0 mi East 9.2 mph - 0.07 in Rain Light Rain
8:53 AM 64.9 °F - 61.0 °F 87% 29.72 in 10.0 mi Calm Calm - 0.08 in   Partly Cloudy
9:53 AM 71.1 °F - 63.0 °F 75% 29.73 in 10.0 mi SSE 9.2 mph - N/A   Clear
10:53 AM 75.0 °F - 62.1 °F 64% 29.72 in 10.0 mi SSE 11.5 mph 23.0 mph N/A   Clear
11:53 AM 75.0 °F - 61.0 °F 62% 29.71 in 10.0 mi SSE 10.4 mph 19.6 mph N/A   Mostly Cloudy
12:53 PM 78.1 °F - 64.0 °F 62% 29.69 in 10.0 mi South 13.8 mph 20.7 mph N/A   Overcast
3:53 PM 81.0 °F 83.3 °F 66.9 °F 62% 29.62 in 10.0 mi South 6.9 mph - N/A   Overcast
4:53 PM 82.0 °F 84.1 °F 66.0 °F 58% 29.60 in 10.0 mi South 12.7 mph 19.6 mph N/A   Mostly Cloudy
5:53 PM 82.0 °F 84.1 °F 66.0 °F 58% 29.58 in 10.0 mi South 11.5 mph 23.0 mph N/A   Scattered Clouds
6:31 PM 78.8 °F - 66.2 °F 65% 29.59 in 7.0 mi SSW 12.7 mph 19.6 mph 0.01 in Rain , Thunderstorm Light Thunderstorms and Rain
6:42 PM 75.2 °F - 66.2 °F 73% 29.60 in 2.0 mi SW 11.5 mph - 0.12 in Rain , Thunderstorm Light Thunderstorms and Rain
6:50 PM 75.2 °F - 68.0 °F 78% 29.60 in 10.0 mi SW 8.1 mph - 0.12 in Thunderstorm Thunderstorm
6:53 PM 75.0 °F - 68.0 °F 79% 29.58 in 10.0 mi SW 6.9 mph - 0.12 in Thunderstorm Overcast
7:18 PM 73.4 °F - 69.8 °F 88% 29.62 in 9.0 mi SSW 6.9 mph - N/A   Overcast
7:35 PM 75.2 °F - 69.8 °F 83% 29.60 in 10.0 mi SSW 6.9 mph - N/A Thunderstorm Overcast
7:53 PM 66.9 °F - 62.1 °F 84% 29.69 in 2.5 mi WSW 31.1 mph 49.5 mph 0.08 in Rain , Thunderstorm Rain
8:00 PM 62.6 °F - 57.2 °F 82% 29.68 in 1.0 mi WSW 29.9 mph 49.5 mph 0.20 in Rain , Thunderstorm Heavy Thunderstorms and Rain
8:08 PM 62.6 °F - 57.2 °F 82% 29.68 in 2.0 mi WSW 11.5 mph 40.3 mph 0.23 in Rain , Thunderstorm Thunderstorms and Rain
8:16 PM 62.6 °F - 59.0 °F 88% 29.71 in 5.0 mi SW 18.4 mph 28.8 mph 0.26 in Rain , Thunderstorm Thunderstorms and Rain
8:53 PM 66.0 °F - 59.0 °F 78% 29.63 in 9.0 mi SSW 17.3 mph 32.2 mph 0.35 in Rain , Thunderstorm Light Rain
9:42 PM 64.4 °F - 57.2 °F 77% 29.66 in 10.0 mi South 5.8 mph - 0.00 in   Scattered Clouds
9:53 PM 64.0 °F - 59.0 °F 84% 29.64 in 10.0 mi WSW 3.5 mph - 0.00 in Rain , Thunderstorm Light Rain
10:53 PM 63.0 °F - 59.0 °F 87% 29.70 in 10.0 mi South 17.3 mph 28.8 mph 0.08 in Thunderstorm Overcast
10:58 PM 62.6 °F - 57.2 °F 82% 29.72 in 10.0 mi South 15.0 mph 28.8 mph N/A Thunderstorm Overcast
11:31 PM 62.6 °F - 59.0 °F 88% 29.67 in 10.0 mi West 6.9 mph 17.3 mph 0.02 in   Scattered Clouds
11:53 PM 62.1 °F - 59.0 °F 90% 29.70 in 10.0 mi WSW 5.8 mph - 0.02 in   Clear